User: anonymous   Login
Location: Unspecified
(0.0000°N, 0.0000°E)
Time: 00:14:14
(UTC+00:00)
Language:

SCD-2 - Orbit

View from above orbital plane
View from above orbital plane
View from above satellite
View from above satellite

Ground track
Ground track

The orbit data is extracted from the following two-line orbital elements,

1 25504U 98060A   18112.88386321  .00000226  00000-0  12958-4 0  9990
2 25504  24.9964  41.6881 0017322  34.8382  13.2816 14.44038976 29753
Epoch (UTC): 22 April 2018 21:12:45
Eccentricity: 0.0017322
inclination: 24.9964°
perigee height: 733 km
apogee height: 757 km
right ascension of ascending node: 41.6881°
argument of perigee: 34.8382°
revolutions per day: 14.44038976
mean anomaly at epoch: 13.2816°
orbit number at epoch: 2975

The dashed part of the orbit path shows where the satellite is in the earth's shadow,  

DLR